[[{"header":{"parameterUnit":"m.s-1","parameterCategory":1,"la1":30.2991,"la2":30.254,"lo1":-89.0895,"lo2":-89.0444,"dy":0.0017,"dx":0.0017,"nx":28,"ny":28,"refTime":"2025-05-21T21:00:00:Z","depth":0,"parameterNumber":2,"parameterNumberName":"U-component_of_WINDS"},"data":[0,0,0,0,0,0,0,0,0,0,0,0,0,0,0,0,0,0,0,0,0,0,0,0,0,0,0,0,0,0,0,0,0,0,0,0,0,0,0,0,0,0,0,0,0,0,0,0,0,0,0,0,0,0,0,0,0,0,-0.6319,-0.6318,0,-0.6273,-0.6273,-0.6272,-0.626,-0.6261,-0.6261,-0.6261,-0.6214,-0.6213,-0.6211,0,0,0,0,0,0,0,0,0,0,0,0,0,-0.6395,-0.6394,-0.6319,-0.6318,-0.6318,-0.6273,-0.6273,-0.6272,-0.626,-0.6261,-0.6261,-0.6261,-0.6215,-0.6213,-0.6211,0,0,0,0,0,0,0,0,0,0,0,0,0,-0.6357,-0.6394,-0.6319,-0.6307,-0.6305,-0.6273,-0.6273,-0.6272,-0.626,-0.6261,-0.6261,-0.6262,-0.6215,-0.6213,-0.6211,-0.6188,0,0,-0.6204,-0.6203,0,0,0,0,0,0,0,0,-0.6359,-0.6354,-0.6309,-0.6307,-0.6306,-0.6273,-0.6282,-0.6244,-0.626,-0.6277,-0.6261,-0.6262,-0.6233,-0.623,-0.622,-0.6186,-0.6184,-0.6204,-0.6202,-0.6201,-0.6201,0,0,0,0,0,0,0,-0.6362,-0.6356,-0.6301,-0.6308,-0.6306,-0.6303,-0.6298,-0.6275,-0.6253,-0.6276,-0.6275,-0.627,-0.6233,-0.6222,-0.6219,-0.6183,-0.6204,-0.6202,-0.62,-0.6199,-0.6127,-0.6127,0,0,0,0,0,0,-0.6367,-0.6359,-0.6302,-0.6299,-0.6334,-0.6301,-0.6296,-0.6283,-0.6254,-0.625,-0.6269,-0.6269,-0.6226,-0.6222,-0.6217,-0.6188,-0.6201,-0.6199,-0.6198,-0.6128,-0.6127,-0.6127,0,0,0,0,0,0,-0.6369,-0.6362,-0.6304,-0.6329,-0.6321,-0.63,-0.6285,-0.6282,-0.6272,-0.6249,-0.6245,-0.6263,-0.6226,-0.622,-0.6195,-0.6186,-0.6198,-0.6196,-0.6129,-0.6128,-0.6127,-0.613,0,0,0,0,0,0,-0.6371,-0.6363,-0.6354,-0.6329,-0.632,-0.6283,-0.6285,-0.6281,-0.6268,-0.6267,-0.6242,-0.6238,-0.6226,-0.6199,-0.6193,-0.6183,-0.6194,-0.6129,-0.6128,-0.6127,-0.6131,-0.6129,-0.6128,0,0,0,0,0,-0.6374,-0.6357,-0.6354,-0.6347,-0.6309,-0.6283,-0.6278,-0.6264,-0.6267,-0.6258,-0.6243,-0.6239,-0.6188,-0.6196,-0.619,-0.6179,-0.613,-0.6129,-0.6127,-0.6131,-0.613,-0.6128,0,0,0,0,0,0,-0.6382,-0.6353,-0.6349,-0.6324,-0.6306,-0.6281,-0.6269,-0.6264,-0.6244,-0.6244,-0.6229,-0.6223,-0.6199,-0.6187,-0.6196,-0.6155,-0.6159,-0.6156,-0.6164,-0.6163,-0.6161,-0.6164,-0.6192,0,0,0,0,0,-0.638,-0.6362,-0.6338,-0.6318,-0.6309,-0.6291,-0.6279,-0.627,-0.6251,-0.6243,-0.6226,-0.6208,-0.6187,-0.6174,-0.6155,-0.6129,-0.6123,-0.6119,-0.6117,-0.6117,-0.6114,-0.6099,-0.6096,-0.6123,-0.6123,-0.6123,0,0,-0.6378,-0.636,-0.6349,-0.6319,-0.6304,-0.6285,-0.6284,-0.6264,-0.6249,-0.624,-0.6215,-0.6202,-0.618,-0.6154,-0.6142,-0.6143,-0.6106,-0.6115,-0.6115,-0.6113,-0.6097,-0.6095,-0.6093,-0.6122,-0.6122,-0.6122,0,0,-0.6363,-0.6348,-0.6329,-0.6314,-0.6291,-0.6279,-0.6274,-0.625,-0.6241,-0.6216,-0.6208,-0.6191,-0.6157,-0.6141,-0.6128,-0.6107,-0.6102,-0.6101,-0.6095,-0.608,-0.6078,-0.6076,-0.6068,-0.6065,-0.6099,-0.6099,-0.6099,0,-0.6362,-0.6333,-0.632,-0.63,-0.6287,-0.6277,-0.6258,-0.6244,-0.6216,-0.6206,-0.6208,-0.6165,-0.6149,-0.6119,-0.6114,-0.6105,-0.6099,-0.6104,-0.608,-0.6078,-0.6076,-0.6067,-0.6064,-0.6099,-0.6099,-0.6099,-0.6099,0,-0.6333,-0.6313,-0.6301,-0.6273,-0.6259,-0.6239,-0.6223,-0.6209,-0.6202,-0.619,-0.6164,-0.6145,-0.6121,-0.6113,-0.6106,-0.6082,-0.6083,-0.6083,-0.6086,-0.6073,-0.6065,-0.6062,-0.6099,-0.6099,-0.6099,-0.6099,0,0,-0.6322,-0.6287,-0.6283,-0.627,-0.6244,-0.6228,-0.6208,-0.6184,-0.6173,-0.6154,-0.6136,-0.6107,-0.6106,-0.6092,-0.6083,-0.6071,-0.6054,-0.6071,-0.607,-0.6068,-0.6025,-0.6025,-0.6022,-0.6051,-0.605,-0.6049,-0.6027,0,-0.6303,-0.6266,-0.6254,-0.6223,-0.6204,-0.6195,-0.6177,-0.6159,-0.6147,-0.6129,-0.6115,-0.6095,-0.6095,-0.6087,-0.6074,-0.6059,-0.6045,-0.606,-0.6033,-0.6032,-0.6038,-0.6018,-0.6017,-0.5997,-0.6023,-0.6023,-0.6023,0,-0.6276,-0.6256,-0.6224,-0.6199,-0.6191,-0.6175,-0.6152,-0.6135,-0.6114,-0.6106,-0.6091,-0.6083,-0.6061,-0.6066,-0.6035,-0.6046,-0.6034,-0.6025,-0.6024,-0.602,-0.6026,-0.6012,-0.599,-0.5986,-0.6018,-0.6018,-0.6018,0,-0.6269,-0.6235,-0.6211,-0.62,-0.6172,-0.6161,-0.6148,-0.6128,-0.6114,-0.6095,-0.6085,-0.6063,-0.6051,-0.6034,-0.602,-0.6025,-0.599,-0.5994,-0.5982,-0.5982,-0.5974,-0.5974,-0.5949,-0.5968,-0.5968,-0.5968,-0.5968,0,-0.6249,-0.6229,-0.6207,-0.6193,-0.617,-0.6156,-0.6134,-0.6121,-0.6103,-0.6085,-0.6076,-0.6059,-0.6042,-0.6023,-0.6012,-0.5988,-0.5983,-0.5975,-0.5972,-0.5975,-0.5976,-0.5966,-0.5967,-0.5968,-0.5968,-0.5968,-0.5968,0,-0.6238,-0.6222,-0.6195,-0.617,-0.6164,-0.6148,-0.6127,-0.6112,-0.6099,-0.6077,-0.607,-0.6051,-0.6028,-0.6012,-0.5983,-0.5976,-0.5949,-0.5947,-0.5956,-0.5954,-0.5942,-0.5943,-0.5909,-0.5903,-0.5928,-0.5927,-0.5927,0,-0.6225,-0.621,-0.6183,-0.617,-0.6158,-0.6138,-0.6124,-0.6109,-0.6095,-0.607,-0.6058,-0.6034,-0.6014,-0.5978,-0.5961,-0.5939,-0.5935,-0.5925,-0.5932,-0.5935,-0.5934,-0.5935,-0.5932,-0.5923,-0.5923,-0.5923,-0.5923,0,-0.6205,-0.6198,-0.6178,-0.6155,-0.6138,-0.612,-0.6101,-0.6091,-0.6073,-0.6058,-0.6034,-0.6019,-0.5989,-0.5966,-0.5941,-0.5928,-0.5922,-0.5921,-0.5917,-0.5919,-0.5925,-0.592,-0.5952,-0.5922,-0.5922,-0.5922,-0.5922,-0.5922,-0.6191,-0.6177,-0.6156,-0.6134,-0.6118,-0.6101,-0.6085,-0.607,-0.6051,-0.6025,-0.6018,-0.5993,-0.5972,-0.5939,-0.5925,-0.5906,-0.5906,-0.5901,-0.5899,-0.5897,-0.5897,-0.5929,-0.5901,-0.5901,-0.5901,-0.5901,-0.5901,0,-0.6169,-0.6155,-0.6135,-0.6109,-0.6091,-0.6088,-0.6067,-0.6052,-0.603,-0.6012,-0.5992,-0.5965,-0.5942,-0.5923,-0.5899,-0.5887,-0.5884,-0.5881,-0.5882,-0.5878,-0.5898,-0.5903,-0.5884,-0.5884,-0.5884,-0.5884,-0.5884,-0.5884,-0.6156,-0.613,-0.6121,-0.6088,-0.6074,-0.6049,-0.6037,-0.6021,-0.6006,-0.5975,-0.5956,-0.5944,-0.5925,-0.59,-0.5878,-0.5874,-0.5865,-0.5863,-0.5857,-0.5875,-0.5877,-0.5879,-0.5884,-0.5861,-0.5861,-0.5839,-0.5839,-0.5839]},{"header":{"parameterUnit":"m.s-1","parameterCategory":1,"la1":30.2991,"la2":30.254,"lo1":-89.0895,"lo2":-89.0444,"dy":0.0017,"dx":0.0017,"nx":28,"ny":28,"refTime":"2025-05-21T21:00:00:Z","depth":0,"parameterNumber":3,"parameterNumberName":"V-component_of_WINDS"},"data":[0,0,0,0,0,0,0,0,0,0,0,0,0,0,0,0,0,0,0,0,0,0,0,0,0,0,0,0,0,0,0,0,0,0,0,0,0,0,0,0,0,0,0,0,0,0,0,0,0,0,0,0,0,0,0,0,0,0,1.7757,1.7758,0,1.7833,1.7834,1.7835,1.786,1.786,1.786,1.786,1.7934,1.7936,1.7939,0,0,0,0,0,0,0,0,0,0,0,0,0,1.7629,1.7631,1.7757,1.7758,1.7759,1.7833,1.7834,1.7835,1.786,1.786,1.786,1.7859,1.7933,1.7936,1.7939,0,0,0,0,0,0,0,0,0,0,0,0,0,1.7693,1.7632,1.7757,1.778,1.7783,1.7833,1.7834,1.7835,1.7861,1.786,1.786,1.7859,1.7932,1.7936,1.7939,1.7969,0,0,1.795,1.7951,0,0,0,0,0,0,0,0,1.7689,1.7698,1.7776,1.7779,1.7782,1.7837,1.7816,1.788,1.7861,1.7831,1.7859,1.7859,1.7902,1.7908,1.7923,1.7973,1.7976,1.795,1.7952,1.7953,1.7954,0,0,0,0,0,0,0,1.7685,1.7694,1.7787,1.7777,1.7781,1.7786,1.7795,1.7829,1.7868,1.7834,1.7836,1.7845,1.7903,1.792,1.7925,1.7977,1.795,1.7953,1.7955,1.7956,1.8054,1.8055,0,0,0,0,0,0,1.7677,1.7691,1.7785,1.7789,1.7734,1.7789,1.7798,1.782,1.7868,1.7875,1.7845,1.7845,1.7914,1.7921,1.7928,1.7966,1.7953,1.7957,1.7958,1.8054,1.8054,1.8055,0,0,0,0,0,0,1.7674,1.7685,1.7781,1.7741,1.7753,1.7791,1.7815,1.7821,1.7838,1.7876,1.7883,1.7854,1.7914,1.7923,1.7959,1.7969,1.7958,1.7961,1.8053,1.8054,1.8055,1.8042,0,0,0,0,0,0,1.767,1.7684,1.7697,1.7741,1.7755,1.7813,1.7816,1.7823,1.7844,1.7845,1.7887,1.7893,1.7914,1.7954,1.7962,1.7973,1.7964,1.8052,1.8053,1.8054,1.8042,1.8042,1.8043,0,0,0,0,0,1.7666,1.769,1.7697,1.7709,1.7772,1.7813,1.7821,1.7846,1.7845,1.7857,1.7882,1.7892,1.7966,1.7957,1.7967,1.7979,1.8052,1.8053,1.8054,1.8041,1.8042,1.8043,0,0,0,0,0,0,1.7645,1.7696,1.7705,1.7744,1.7774,1.7817,1.7834,1.7846,1.7876,1.7876,1.7904,1.7913,1.7947,1.7966,1.7955,1.801,1.8009,1.8013,1.7996,1.7997,1.7998,1.7992,1.7967,0,0,0,0,0,1.7645,1.7675,1.7718,1.7748,1.7763,1.7796,1.7814,1.7831,1.7862,1.7875,1.7902,1.7931,1.7961,1.798,1.801,1.8045,1.8053,1.8058,1.8058,1.8058,1.8061,1.808,1.8082,1.8059,1.8059,1.8059,0,0,1.7646,1.7677,1.7694,1.7745,1.777,1.7799,1.7806,1.7837,1.7858,1.7879,1.7915,1.7936,1.797,1.8006,1.8022,1.8023,1.8069,1.806,1.806,1.8062,1.8081,1.8083,1.8085,1.806,1.806,1.806,0,0,1.7661,1.7689,1.7717,1.7742,1.778,1.7802,1.7808,1.785,1.7865,1.7901,1.7917,1.7942,1.7993,1.8017,1.8036,1.8059,1.8069,1.8068,1.8071,1.8088,1.809,1.8092,1.81,1.8102,1.807,1.807,1.807,0,1.7657,1.7703,1.7729,1.7759,1.778,1.7801,1.7829,1.7851,1.7897,1.791,1.7911,1.7975,1.7999,1.804,1.8046,1.806,1.8068,1.8063,1.8088,1.809,1.8092,1.8099,1.8102,1.807,1.807,1.807,1.807,0,1.7695,1.7726,1.7744,1.7788,1.7811,1.7839,1.7869,1.7889,1.7903,1.7924,1.796,1.799,1.8026,1.8037,1.805,1.8079,1.8078,1.8083,1.8083,1.8093,1.8101,1.8104,1.8069,1.8069,1.8069,1.8069,0,0,1.77,1.7758,1.7764,1.7784,1.7828,1.7852,1.788,1.7916,1.7932,1.7962,1.7986,1.8029,1.8033,1.8054,1.8071,1.8086,1.8102,1.8089,1.809,1.809,1.8134,1.813,1.8133,1.8109,1.811,1.811,1.8131,0,1.7721,1.7775,1.7799,1.7841,1.7869,1.7889,1.7914,1.7942,1.7963,1.7989,1.801,1.804,1.8044,1.8057,1.8073,1.8097,1.8111,1.8095,1.813,1.8131,1.8121,1.8137,1.8133,1.8152,1.8134,1.8135,1.8135,0,1.7753,1.7784,1.7829,1.7868,1.7881,1.7903,1.7937,1.7962,1.7994,1.8008,1.8031,1.8047,1.8076,1.8074,1.8114,1.8103,1.8118,1.8132,1.8133,1.8137,1.8134,1.8141,1.8158,1.8161,1.814,1.814,1.8139,0,1.7751,1.7804,1.7838,1.7855,1.7901,1.7916,1.7936,1.7968,1.7987,1.8017,1.8029,1.8062,1.8079,1.8103,1.8126,1.8122,1.8163,1.8163,1.8174,1.8174,1.8182,1.8181,1.8202,1.8193,1.8193,1.8193,1.8192,0,1.7772,1.7799,1.7838,1.7859,1.7889,1.7916,1.7944,1.7965,1.7993,1.8017,1.8036,1.8057,1.8087,1.8112,1.813,1.816,1.8168,1.8179,1.8183,1.8177,1.8176,1.8188,1.8187,1.8193,1.8193,1.8193,1.8193,0,1.7776,1.7803,1.7841,1.7882,1.7893,1.7913,1.7948,1.7968,1.7989,1.8019,1.8027,1.806,1.809,1.8116,1.8156,1.8168,1.8199,1.8204,1.8188,1.819,1.82,1.8198,1.8228,1.8233,1.8221,1.8221,1.8221,0,1.7787,1.7808,1.7851,1.7869,1.7889,1.7918,1.7938,1.7964,1.7985,1.8022,1.8037,1.8069,1.8097,1.8144,1.817,1.8201,1.8207,1.8215,1.8211,1.8204,1.8206,1.8204,1.8206,1.8215,1.8215,1.8215,1.8215,0,1.7804,1.7816,1.7845,1.7879,1.7903,1.793,1.7958,1.7971,1.8003,1.8024,1.8056,1.8077,1.8118,1.8149,1.8182,1.8201,1.8213,1.8216,1.822,1.8214,1.8204,1.8209,1.8188,1.8215,1.8215,1.8215,1.8215,1.8215,1.7811,1.7831,1.7864,1.7895,1.7919,1.7945,1.7965,1.7989,1.8016,1.8052,1.8066,1.8098,1.8128,1.8174,1.8193,1.8218,1.8219,1.8226,1.8227,1.8228,1.8227,1.82,1.8224,1.8224,1.8224,1.8224,1.8224,0,1.7829,1.7851,1.788,1.7918,1.7943,1.7953,1.7983,1.8003,1.8031,1.8059,1.8085,1.8121,1.8152,1.818,1.8211,1.8226,1.8232,1.8233,1.8232,1.8236,1.8224,1.8217,1.8227,1.8227,1.8227,1.8227,1.8227,1.8227,1.7841,1.7874,1.789,1.7934,1.7956,1.7989,1.8005,1.8028,1.8051,1.809,1.8116,1.8134,1.8162,1.8195,1.8223,1.823,1.8241,1.824,1.8249,1.8237,1.8237,1.8236,1.823,1.8242,1.8242,1.8259,1.8259,1.8259]}]]